Theta_e
307 307 307 308 309 309 309 309 309 309 309 310 311 312 313 315 317 317 316 315 316 315 314 313 312 313 313 312 311 312 312 312 313 318 322 319 313 314 319 322 323 323 322 323 322 326 332 333 331 335 345 354 360 359 358 362 365 366 376 374 361 365 369 366 369 367 363 364 369 365 368 371 360 354 348 350 349 345 348 346 347 348 347 348 347 348 350 351
307 307 307 307 307 308 308 308 308 308 308 309 311 312 312 315 318 318 318 317 316 316 314 313 312 313 313 312 312 312 313 314 319 326 327 315 314 314 318 323 321 318 319 323 325 326 334 335 332 344 353 358 360 358 362 364 366 368 372 373 366 370 370 364 367 368 365 364 370 369 367 367 360 355 351 353 350 347 350 348 351 352 349 348 347 350 351 351
307 307 307 308 308 307 308 308 308 308 308 309 310 311 312 314 317 319 319 319 318 316 315 313 313 313 313 312 313 312 314 318 328 336 327 314 317 317 319 324 321 318 317 321 326 327 331 332 336 351 356 357 360 361 366 367 367 366 367 374 372 371 368 366 370 368 366 365 369 370 365 363 358 353 351 354 350 349 353 351 354 355 350 349 348 350 351 351
308 308 308 308 308 308 308 308 308 308 308 308 309 310 311 312 315 318 319 320 319 318 316 314 313 313 313 313 313 312 316 325 330 332 327 316 318 321 321 323 321 319 317 316 323 328 329 329 334 344 348 356 361 361 367 366 363 364 365 368 366 368 367 367 370 369 368 365 365 366 361 358 356 352 350 352 351 352 352 349 354 354 349 349 349 350 351 351
309 309 309 309 309 309 308 308 308 308 308 308 308 309 310 311 313 318 320 320 320 319 317 315 313 313 313 312 314 315 321 329 326 330 329 320 320 323 323 323 321 319 318 316 318 325 325 324 327 330 335 352 362 361 365 363 362 363 362 364 366 368 367 364 365 368 369 364 363 364 358 353 353 352 350 350 353 354 350 345 349 350 348 349 349 350 350 350
310 310 310 309 309 309 308 309 308 308 308 308 308 308 309 311 312 317 320 319 319 318 317 316 313 313 313 313 316 319 326 329 327 330 330 325 322 323 325 326 325 320 319 317 315 319 322 322 324 328 337 351 360 362 363 362 361 362 360 364 367 366 368 364 361 363 365 368 365 362 360 355 352 352 348 349 353 352 349 346 347 347 347 348 349 350 350 350
312 311 310 310 310 310 309 309 309 309 308 307 308 308 309 309 311 317 319 318 318 317 317 316 314 314 314 315 320 324 330 330 327 328 329 328 324 323 327 329 328 322 320 317 314 318 323 325 325 331 346 355 359 360 361 361 358 361 362 364 365 364 367 361 357 358 359 368 363 359 365 362 358 356 349 349 352 351 349 347 347 347 347 348 349 349 350 350
314 313 312 311 311 311 310 310 310 309 308 308 308 307 308 309 310 315 319 318 317 317 316 315 314 314 315 318 325 331 336 332 327 327 327 327 324 324 327 328 327 323 321 317 316 320 323 328 327 329 341 348 357 360 359 363 361 362 363 365 366 364 364 356 358 365 364 363 359 365 373 363 360 356 350 352 350 347 347 346 346 347 347 348 349 349 350 349
317 315 314 313 312 311 311 311 310 310 310 308 308 308 308 308 310 313 318 318 316 317 315 315 315 313 317 322 327 332 333 330 330 328 326 322 319 322 327 326 325 325 323 316 316 321 325 331 331 331 332 332 347 357 358 364 362 362 364 366 368 365 363 359 359 366 366 359 361 377 376 363 361 352 349 353 348 344 347 347 346 347 348 348 348 348 349 349
317 317 316 315 314 313 312 311 311 311 311 309 308 308 308 308 310 312 318 319 316 316 315 315 315 315 321 325 330 334 328 327 330 328 322 316 313 319 327 326 325 327 321 314 316 323 330 334 332 331 327 329 346 356 358 361 358 362 364 365 365 364 365 363 360 360 362 357 360 378 373 365 365 354 351 352 345 345 347 348 347 348 349 348 348 348 348 348
318 318 317 316 316 315 313 312 311 311 311 311 309 308 308 308 309 311 317 319 317 316 316 316 315 319 323 324 330 335 327 325 328 325 318 313 312 316 322 322 324 325 320 318 319 321 330 331 327 325 322 334 353 357 359 358 358 361 363 365 362 363 365 364 365 362 362 360 357 370 372 366 362 357 359 352 342 346 348 348 348 348 349 348 348 347 347 347
319 318 318 317 316 316 315 313 312 311 311 311 310 309 308 309 309 311 316 319 317 316 316 316 318 322 324 325 331 331 324 325 325 323 318 312 312 313 314 315 317 319 317 321 320 317 327 329 325 320 319 340 357 358 360 360 363 364 365 370 365 367 366 362 369 364 362 365 358 365 369 368 365 358 357 350 342 345 349 349 348 348 348 347 348 347 348 346
318 319 319 319 318 317 315 314 313 312 311 311 311 310 310 310 309 311 317 319 317 317 317 317 320 322 326 332 332 328 325 327 323 322 320 313 314 313 312 313 314 313 314 320 321 319 325 327 325 319 324 351 359 353 358 359 365 368 366 373 372 369 363 358 366 363 362 364 359 360 359 363 368 360 353 347 342 344 348 349 348 348 347 346 346 345 346 345
317 318 318 319 319 318 317 315 314 312 312 311 311 312 313 314 311 313 317 319 318 317 317 318 321 322 330 338 331 327 328 327 325 324 321 318 319 317 314 316 315 313 313 317 322 321 323 324 322 317 327 351 356 352 360 360 366 369 361 368 368 360 358 359 362 363 362 360 358 359 355 359 365 359 354 348 342 342 346 347 346 346 345 344 344 344 345 344
317 317 318 318 319 320 318 316 314 313 312 311 312 315 319 317 314 315 318 319 318 318 319 321 322 325 336 339 329 325 325 326 328 326 325 323 322 322 319 319 319 317 317 317 321 323 324 322 318 323 336 349 354 361 368 363 368 368 353 358 361 353 361 366 360 361 364 363 360 357 356 364 363 357 361 356 345 343 343 343 343 342 342 342 343 343 344 345
317 317 317 318 319 320 319 318 314 313 312 311 315 320 323 321 317 319 319 318 318 319 322 324 322 324 333 333 325 324 324 324 326 325 326 326 323 325 323 321 322 321 322 322 323 322 323 321 318 330 347 356 361 369 370 360 365 367 352 354 358 354 359 364 361 360 361 362 359 357 360 365 362 359 366 364 349 344 344 341 341 341 341 343 344 344 346 348
317 317 317 317 318 319 320 319 315 313 312 312 317 323 325 323 321 322 320 319 320 320 322 324 323 322 325 326 324 326 326 323 323 323 325 325 325 325 323 323 321 320 322 322 321 320 319 320 319 323 335 349 357 361 352 341 349 359 353 353 358 357 358 361 364 360 359 361 360 361 362 361 362 363 364 362 351 344 344 342 342 342 343 345 346 346 347 348
318 317 317 317 318 319 320 319 317 313 312 313 318 324 326 325 324 323 321 321 322 322 323 324 324 323 322 323 323 325 325 323 323 322 323 326 325 324 324 323 319 319 322 321 320 320 319 320 321 322 323 336 354 352 334 330 344 356 356 355 355 357 359 361 363 360 358 363 362 363 362 361 364 363 362 362 352 344 343 344 345 345 346 347 347 347 347 347
319 319 318 317 317 318 319 320 318 313 312 314 318 324 326 326 326 325 322 322 325 326 327 328 327 325 323 324 323 323 324 323 323 322 322 325 324 324 323 320 319 320 321 322 322 319 320 320 320 321 317 328 351 349 332 339 354 361 364 363 358 357 358 361 362 359 358 363 366 364 361 362 364 361 360 362 354 344 344 346 348 349 349 348 347 347 346 347
320 319 319 318 317 317 318 319 318 314 313 315 317 321 323 324 329 331 325 327 330 326 324 327 327 326 326 326 324 323 322 321 322 322 322 323 322 323 321 318 320 321 322 323 321 317 319 321 319 320 317 321 336 338 337 350 357 363 367 364 362 362 361 361 359 358 358 362 366 364 361 362 365 363 358 360 355 345 346 349 351 352 350 347 347 346 347 347
321 320 320 319 318 317 317 319 319 315 313 315 316 319 321 321 326 329 325 329 330 322 324 326 323 324 325 324 324 322 322 321 321 320 319 321 322 322 321 319 319 321 322 320 318 319 320 319 319 320 320 319 322 326 332 338 349 364 366 361 363 362 360 359 358 358 359 361 362 362 363 359 359 360 356 357 357 348 347 349 349 352 350 348 348 347 347 347
321 321 320 320 320 318 317 318 318 314 313 315 314 316 318 318 321 322 320 325 326 322 326 326 321 323 323 322 323 323 324 325 323 321 319 320 320 321 322 320 321 322 320 316 318 322 320 318 320 318 319 320 318 321 324 328 348 368 365 359 360 359 358 357 358 360 359 361 362 361 363 358 356 357 354 357 362 361 359 353 350 351 350 349 349 348 347 348
322 322 321 321 321 318 317 317 317 315 313 314 313 314 316 317 320 319 319 325 327 324 327 328 326 328 328 325 323 325 328 328 325 323 320 319 320 321 322 320 321 321 318 317 319 318 316 318 321 318 317 319 316 319 326 334 351 367 364 358 357 358 358 357 359 360 358 359 360 361 362 359 359 358 354 358 365 368 368 364 360 353 350 350 347 347 347 348
323 322 321 321 320 319 318 316 316 315 314 314 313 315 317 318 321 320 322 328 330 327 326 326 328 332 332 327 323 327 330 326 324 324 320 320 321 319 320 322 321 320 320 320 321 318 317 319 319 317 318 319 319 328 339 343 350 360 361 360 364 363 358 357 361 359 357 357 358 360 358 358 362 361 359 363 364 365 366 365 363 357 351 349 347 347 347 347
322 322 322 321 321 320 317 316 317 316 316 314 314 316 317 319 321 320 327 332 331 332 326 320 323 328 327 323 323 326 324 322 322 322 320 319 320 319 320 321 319 321 322 319 319 319 320 319 316 317 319 317 319 333 347 349 349 353 357 360 366 365 358 358 361 358 355 355 357 358 354 355 363 361 360 365 365 366 367 364 361 360 356 352 350 350 348 346
321 322 322 321 321 320 318 317 317 317 317 314 315 318 317 320 322 321 331 337 333 335 329 320 321 324 321 319 321 322 321 323 321 318 319 319 320 320 320 320 319 322 323 321 320 320 321 319 316 318 318 318 318 322 337 349 349 349 354 359 362 362 358 358 360 357 354 353 356 357 353 352 358 359 359 362 364 366 367 366 363 361 360 357 352 350 348 347
319 322 321 321 322 320 319 319 317 318 318 314 315 316 316 320 320 320 331 336 333 332 326 320 319 320 320 318 319 321 320 323 320 318 321 320 319 319 320 321 319 319 322 322 319 320 322 320 319 320 317 319 318 314 330 347 349 349 353 359 363 363 359 358 360 358 355 354 355 358 355 352 354 358 359 359 362 364 362 364 364 359 359 357 352 350 348 347
317 319 320 321 321 319 318 317 318 318 316 315 314 315 317 319 321 327 332 329 328 325 321 320 318 318 319 317 320 323 322 321 321 319 320 320 320 319 320 323 321 322 322 319 317 320 322 320 323 325 321 320 318 318 332 345 350 352 353 357 360 359 357 358 360 357 355 353 353 356 355 351 353 358 361 359 358 359 359 359 360 358 357 355 353 351 347 346
315 317 318 320 320 319 318 316 317 319 316 316 313 314 318 317 324 335 334 328 325 321 321 320 319 319 320 319 319 322 321 321 321 320 320 320 319 319 319 321 322 322 321 318 321 323 321 322 325 325 323 322 322 325 334 349 359 354 351 354 354 354 357 360 362 358 356 354 352 353 353 350 352 358 359 358 355 355 356 354 354 355 355 354 353 352 349 347
314 315 317 319 320 318 317 316 317 318 315 315 314 316 318 324 336 335 327 327 324 320 320 318 319 319 320 321 320 321 321 321 323 321 321 321 320 320 319 320 322 323 325 323 323 323 321 325 331 326 320 323 332 338 344 354 357 352 353 354 351 357 361 361 362 355 350 353 351 350 353 350 350 358 360 357 356 356 353 352 352 353 355 354 353 352 350 347
313 314 316 318 319 318 317 318 318 316 316 315 315 318 318 330 343 331 323 326 323 321 321 319 321 320 319 321 321 321 320 321 324 322 322 322 321 323 319 320 323 325 332 330 322 323 323 323 327 327 328 335 343 349 349 352 353 355 361 355 349 355 355 353 357 353 348 351 350 349 354 351 348 358 367 364 361 360 355 352 351 351 354 355 353 353 350 347
312 313 315 317 318 317 318 320 318 316 318 316 316 324 327 323 324 324 327 327 323 323 322 319 320 320 320 320 320 322 320 321 324 322 325 323 322 325 321 323 325 319 323 326 319 322 327 323 321 320 329 343 352 351 347 351 355 355 356 352 349 350 350 352 353 352 350 347 346 352 355 352 349 355 365 364 360 361 358 356 354 349 350 355 355 354 352 348
311 313 315 316 317 317 318 319 318 317 319 318 318 332 336 321 317 324 329 327 324 324 320 319 320 320 320 319 322 323 320 321 323 322 324 323 322 325 322 325 326 317 318 321 317 319 324 325 324 318 321 332 347 354 349 350 355 353 349 346 348 351 352 357 353 346 347 346 347 354 354 351 349 350 357 360 357 361 361 360 360 355 350 354 355 353 351 350
311 313 314 316 318 319 321 319 319 319 318 317 321 330 326 317 323 330 330 330 329 324 320 320 321 320 319 319 322 323 319 321 322 321 323 322 321 324 324 321 321 321 324 320 317 318 317 318 321 319 318 321 331 345 351 353 351 350 349 343 345 351 350 349 348 344 345 349 350 350 351 352 349 348 355 360 359 362 363 361 363 361 356 355 354 353 352 350
310 313 315 318 318 321 324 320 320 319 315 317 327 330 320 317 323 326 328 332 328 323 322 320 320 319 318 319 321 321 318 319 322 322 322 323 321 325 329 323 320 325 324 318 319 320 314 317 323 320 318 319 319 328 342 354 350 342 340 339 338 346 348 337 338 348 349 350 353 350 350 356 355 351 356 360 361 363 363 362 363 362 360 357 356 354 353 351
311 314 316 318 320 323 323 321 320 316 314 320 324 321 320 321 321 321 328 328 320 322 324 320 320 316 314 318 320 320 319 318 321 321 320 321 321 324 328 325 324 323 320 322 324 320 315 318 325 325 323 323 320 321 329 340 347 341 336 340 336 340 354 341 333 347 346 341 347 347 349 357 353 348 357 362 363 364 365 364 364 363 361 360 358 354 352 352
315 317 319 320 322 323 322 322 319 314 316 321 323 324 326 324 321 325 331 325 318 323 323 320 321 316 311 314 319 322 320 317 318 319 318 318 319 321 323 323 322 321 321 324 322 320 319 317 322 327 326 323 322 324 324 326 337 340 336 341 333 328 344 342 335 345 343 337 345 347 350 354 346 345 359 366 364 365 367 365 364 363 361 360 358 354 353 353
317 318 321 321 321 323 323 321 316 315 318 320 326 335 332 322 319 323 325 321 319 324 323 320 321 317 314 313 317 322 319 315 317 320 318 317 318 321 322 322 321 320 321 322 319 321 322 318 320 327 325 325 330 329 325 324 327 332 334 334 325 321 327 328 330 341 341 339 346 348 349 350 347 352 364 368 368 368 367 366 365 363 361 359 357 355 356 354
318 322 325 321 321 324 322 318 316 319 320 319 325 333 327 322 324 324 323 321 320 322 323 323 321 318 317 315 318 320 317 316 318 319 317 315 317 320 321 322 321 320 320 321 322 325 327 319 317 324 324 323 333 332 326 326 326 326 331 330 330 331 330 327 328 333 337 340 344 343 343 348 353 360 367 369 367 364 365 368 367 363 362 359 356 356 357 354
318 326 327 320 320 322 318 316 317 320 320 320 328 330 323 321 324 325 325 322 320 321 322 323 320 318 320 320 319 318 317 320 320 318 318 317 317 318 321 323 322 323 320 321 327 328 328 323 317 327 332 323 327 333 333 335 330 327 331 328 329 332 328 327 329 328 334 342 345 341 339 349 360 361 363 365 359 357 363 365 361 359 359 359 357 357 356 354
318 326 328 321 317 317 316 314 317 322 323 321 323 324 322 323 322 323 325 322 320 321 320 321 321 319 320 321 319 318 320 324 321 319 319 318 317 317 320 324 324 324 321 323 330 326 325 327 323 325 329 323 326 334 335 335 332 335 337 329 330 331 327 329 329 329 335 341 344 342 339 350 360 354 356 358 352 355 360 358 357 357 357 357 359 357 355 355
319 321 322 320 319 318 315 318 322 324 326 323 319 319 323 327 325 322 322 319 319 320 318 319 321 320 321 320 319 320 322 325 323 320 320 320 322 321 322 325 324 327 327 324 326 329 335 342 332 325 330 331 330 329 327 327 329 334 336 333 335 336 335 336 331 331 335 337 340 340 338 349 355 350 354 355 351 353 355 355 356 355 355 356 357 356 354 355
325 324 322 320 323 321 317 322 326 325 327 326 322 320 320 322 322 321 320 317 318 319 317 318 319 319 321 318 317 319 320 321 322 322 322 323 324 324 325 325 324 329 331 324 324 332 341 344 331 328 342 346 338 334 331 329 331 330 331 335 334 332 340 345 341 340 338 337 340 337 335 347 353 351 355 354 351 353 354 356 355 352 355 357 355 355 354 355
321 321 326 324 323 321 319 323 326 328 335 333 328 327 324 320 319 318 318 319 320 318 317 319 319 318 319 317 317 320 318 316 318 321 323 322 324 326 324 325 326 327 328 328 329 325 325 332 329 323 329 332 328 333 333 331 332 332 334 338 337 339 342 339 340 343 336 336 342 338 337 348 351 351 356 355 354 356 355 355 355 353 354 354 353 355 354 354
321 324 328 327 323 323 325 326 326 329 335 333 334 336 331 325 322 320 318 320 321 319 317 320 319 317 318 317 317 320 319 316 317 320 322 321 323 324 323 324 323 324 335 343 341 330 325 336 341 327 320 320 321 328 335 336 332 330 336 339 338 344 341 331 333 335 331 334 338 336 340 350 354 353 356 356 354 356 358 356 354 354 352 351 352 353 353 353
327 334 336 335 331 328 327 326 325 331 335 333 337 338 329 326 327 322 318 317 317 317 316 318 319 317 317 317 317 320 321 318 319 322 324 323 324 322 322 325 322 329 350 354 347 347 341 343 353 345 329 325 330 338 344 343 332 325 331 337 339 345 344 337 334 333 335 339 339 344 351 354 360 360 354 355 355 355 359 358 354 354 351 349 350 349 351 353
326 332 333 334 336 334 331 326 324 331 332 330 334 334 326 327 329 326 324 321 320 320 318 318 320 320 319 318 318 320 322 322 322 322 323 324 324 322 322 326 329 340 354 344 338 349 340 327 340 348 335 332 339 342 341 338 331 328 332 334 338 345 344 335 332 335 340 335 335 354 360 352 362 371 357 353 354 352 356 357 354 353 350 348 350 349 350 353
327 330 327 326 331 336 333 327 326 330 330 328 334 334 328 328 331 329 329 326 324 324 324 324 326 326 323 320 317 320 322 323 323 323 324 323 324 326 325 324 328 337 341 330 332 349 339 323 327 333 329 334 338 336 336 337 334 338 343 340 340 347 343 335 336 343 340 331 334 352 358 355 367 373 358 353 354 352 353 354 352 352 350 347 348 350 351 353
327 331 328 324 328 332 330 327 328 331 331 331 335 334 329 330 331 328 327 327 328 327 325 326 329 329 326 323 324 327 324 318 319 323 328 325 322 326 328 325 324 328 329 326 330 337 331 326 332 332 324 328 335 336 338 339 334 335 343 345 347 352 349 345 352 353 341 340 349 352 354 362 366 361 356 354 353 352 352 351 351 351 349 348 349 352 353 352
325 328 328 326 331 334 333 330 329 331 333 334 333 331 329 331 330 327 327 326 327 329 327 326 328 329 328 327 330 331 326 321 321 324 326 324 324 330 332 330 329 327 325 325 327 327 323 323 338 342 324 321 336 342 342 345 338 331 335 344 352 354 350 350 359 356 343 348 360 354 353 365 361 352 353 352 350 352 352 350 351 350 348 348 350 351 349 347
319 321 322 325 333 335 333 332 329 328 332 336 334 331 331 332 329 328 330 328 325 328 328 326 328 330 331 333 333 329 325 325 325 325 326 324 324 329 329 328 331 329 326 325 324 331 334 329 335 341 324 319 331 337 339 344 339 330 332 343 353 355 351 352 358 355 347 352 358 349 350 364 360 349 350 351 349 351 351 351 351 349 348 349 350 351 347 345
317 319 319 322 330 333 332 334 332 326 327 331 330 328 330 332 328 327 334 335 330 326 326 325 326 330 335 334 330 326 324 325 324 323 324 323 322 324 324 325 329 328 328 330 327 336 347 337 331 334 326 322 332 338 341 344 336 332 339 347 354 358 355 352 353 352 352 358 358 349 348 357 354 347 349 350 350 350 351 352 352 351 350 349 348 349 346 344
Wind_Speed
14 14 14 14 15 16 17 17 18 18 17 17 17 17 16 15 12 10 9 9 8 7 5 5 7 8 9 10 12 14 16 15 10 6 5 5 5 6 7 10 12 13 13 12 13 13 8 4 5 4 3 0 1 1 2 2 1 2 2 3 2 2 2 3 4 4 1 1 3 2 2 5 3 3 3 4 5 5 4 3 3 6 6 9 14 20 23 22
14 14 15 15 16 16 17 17 18 18 17 17 18 17 17 15 13 11 10 9 8 7 5 5 6 8 9 10 12 14 16 14 9 7 9 5 4 9 10 11 12 12 12 13 15 14 8 4 5 5 3 1 1 1 2 1 1 2 1 2 1 3 2 3 4 3 1 1 2 2 4 4 3 6 4 4 4 4 5 3 4 8 7 10 16 21 21 21
15 15 15 16 16 17 18 18 18 18 18 18 18 18 17 16 13 11 11 9 8 7 5 4 5 7 8 9 12 14 14 9 5 5 5 5 10 12 13 12 11 11 9 10 12 11 9 9 8 6 2 1 1 0 2 1 0 1 2 2 2 3 1 1 1 2 2 1 2 2 4 3 3 6 4 6 7 4 4 4 5 7 7 9 12 16 19 19
16 16 16 17 17 18 18 19 19 19 18 18 18 18 17 16 14 11 11 9 7 6 5 4 4 5 7 9 11 12 9 4 1 2 1 6 13 14 15 12 11 11 7 5 10 10 8 10 8 4 2 1 2 1 1 1 0 1 2 1 2 0 1 3 2 1 2 2 2 1 4 4 3 4 5 9 7 2 5 7 7 11 12 12 11 13 16 16
17 17 17 17 18 18 19 19 19 19 18 18 18 17 17 17 15 13 11 9 7 5 5 3 3 4 6 9 10 9 5 2 1 1 3 6 13 15 15 13 11 12 8 5 9 9 7 7 5 2 2 0 1 2 1 2 1 1 1 1 1 1 1 3 4 2 0 3 2 3 4 3 2 3 7 12 9 5 7 7 8 13 15 14 13 13 14 13
18 18 18 18 18 19 19 19 19 19 18 17 17 17 16 16 15 14 11 9 6 5 4 3 2 3 5 8 7 6 2 1 3 1 2 5 11 15 14 13 11 11 9 6 8 9 5 4 3 1 2 1 1 2 2 1 2 2 2 1 3 3 1 4 4 5 2 5 3 1 1 1 4 3 7 11 7 4 4 7 8 11 14 16 15 13 12 11
20 19 19 19 19 19 19 19 19 19 18 17 16 16 16 16 15 13 10 8 6 4 3 2 2 3 5 5 4 4 3 3 5 3 5 5 10 14 14 12 11 12 10 8 8 6 4 4 2 2 2 1 2 4 2 2 3 3 1 1 3 4 3 4 4 6 5 6 2 2 1 0 6 4 5 6 3 0 6 10 9 11 14 16 13 11 12 12
21 20 20 19 19 19 19 19 19 19 18 17 16 15 15 14 14 12 9 7 6 4 2 2 2 2 4 3 2 4 2 3 4 3 5 6 9 14 16 12 11 12 11 10 9 7 5 5 3 2 2 2 3 3 3 4 2 2 0 1 2 3 3 3 2 4 4 4 3 0 3 1 5 4 5 4 3 4 9 11 11 11 13 12 11 11 10 10
21 21 20 20 20 20 19 19 19 18 18 17 16 15 14 13 12 10 7 6 5 3 2 2 2 2 3 2 3 3 2 3 2 3 4 5 8 13 16 14 13 13 11 11 8 7 6 4 4 3 3 4 2 3 4 4 1 2 2 1 3 2 3 3 2 3 3 4 5 4 5 3 0 2 3 1 3 8 10 12 11 12 11 10 10 10 10 9
21 21 21 21 20 20 19 19 19 18 18 17 16 15 14 12 11 8 6 5 4 2 2 2 2 3 2 1 4 3 2 2 2 4 3 3 7 13 16 14 15 15 11 9 9 8 7 5 4 4 3 3 1 2 3 3 1 3 4 4 5 2 2 3 2 3 3 4 5 5 4 6 5 1 2 1 5 10 11 11 11 12 11 10 10 9 9 10
22 21 21 21 21 20 20 19 19 18 17 17 16 15 14 12 10 7 4 3 2 1 2 1 1 2 2 3 4 1 2 1 2 4 3 3 7 11 15 14 15 17 13 8 11 14 10 5 2 1 1 1 1 2 2 2 3 5 5 5 5 3 3 5 3 3 3 2 4 4 4 7 7 3 4 5 7 11 13 12 11 11 10 10 10 8 8 9
23 22 22 21 21 21 20 20 19 18 17 17 16 16 14 12 9 6 3 2 1 1 1 1 1 1 2 3 3 3 1 0 3 4 3 2 5 7 10 11 13 17 14 9 12 18 14 6 1 1 2 1 1 1 2 2 4 3 4 4 3 3 4 5 3 3 3 1 5 3 4 4 4 5 6 7 9 11 12 12 11 10 9 8 8 7 6 8
24 23 23 22 22 21 21 20 20 19 18 17 17 17 15 12 9 5 3 3 2 2 2 3 1 0 2 0 3 1 1 2 4 5 3 4 3 4 8 8 9 13 13 11 10 13 14 11 3 2 2 3 1 1 3 3 2 1 2 3 2 4 3 4 3 3 3 1 5 3 1 3 4 6 4 7 9 11 10 10 10 9 8 8 7 7 7 9
26 26 25 24 23 23 22 21 21 20 18 18 18 17 14 10 6 4 5 4 3 2 2 3 1 1 2 3 3 0 3 3 5 7 6 5 4 4 8 7 8 11 11 10 7 3 4 6 4 3 1 3 3 1 3 4 3 1 2 2 2 1 2 5 4 3 3 1 3 1 2 4 4 5 2 5 8 13 11 10 10 8 7 7 7 8 7 8
29 28 27 27 25 24 24 23 23 21 20 19 18 16 11 6 0 4 5 5 4 3 3 3 2 1 1 4 2 1 3 2 7 10 8 8 6 4 7 10 10 11 10 11 9 5 5 4 1 1 1 1 3 4 3 3 3 2 1 2 2 1 2 5 4 3 2 1 2 1 2 3 4 6 5 3 6 10 11 10 9 8 8 7 7 7 7 6
30 30 29 28 27 26 25 24 23 22 21 20 18 14 10 7 3 4 5 5 4 4 3 3 2 2 1 2 1 2 3 3 5 8 9 11 10 4 4 9 8 8 10 10 8 8 7 2 0 1 2 2 3 5 3 3 3 3 1 2 1 1 1 3 3 1 2 1 1 1 2 1 3 5 6 2 6 8 8 9 8 8 8 7 6 6 6 5
32 31 31 30 29 27 25 25 24 23 21 18 16 12 10 8 5 4 5 5 4 4 3 2 1 2 1 3 2 2 3 4 4 6 9 13 13 6 3 4 4 5 7 5 3 3 3 1 1 1 2 3 2 5 4 2 4 3 2 1 2 2 1 1 2 1 3 2 2 1 3 3 4 3 5 2 7 8 7 8 8 7 7 6 6 6 6 6
32 32 32 31 30 28 26 25 23 23 20 16 14 10 9 8 6 5 5 5 3 3 2 0 1 2 2 3 2 2 4 5 5 5 8 11 14 10 2 1 3 4 2 1 1 1 1 2 1 1 2 1 2 5 3 3 4 3 2 1 2 1 2 2 2 1 1 1 2 2 2 4 5 4 5 2 7 9 8 8 7 7 6 6 6 6 6 7
33 33 32 32 32 30 27 24 23 22 17 14 12 7 7 7 5 3 4 4 2 0 1 1 1 1 2 3 4 6 7 5 4 5 8 10 10 9 4 1 3 3 3 2 2 1 1 3 3 1 2 3 4 5 6 5 5 5 4 3 2 1 2 2 1 1 1 1 2 3 2 2 4 3 5 4 4 9 8 7 6 5 5 5 6 6 7 8
34 34 33 33 32 32 29 25 23 20 13 11 10 5 5 5 4 3 1 1 3 4 4 4 3 1 4 5 4 5 5 2 3 4 7 9 7 6 2 2 4 4 3 3 2 1 3 2 2 6 5 5 6 7 5 4 4 5 4 3 3 1 1 1 1 0 1 0 1 2 1 2 3 3 5 6 3 9 8 7 6 5 5 6 6 6 7 7
34 34 33 33 32 33 32 27 24 18 10 9 8 3 1 1 2 4 5 4 6 8 8 7 5 4 8 7 3 1 2 1 2 2 5 8 8 7 1 2 4 1 2 2 1 3 4 3 7 8 7 6 6 6 4 3 2 4 4 3 3 1 1 1 1 1 1 1 1 1 1 1 2 4 6 7 2 8 9 8 8 7 6 6 7 7 7 5
34 34 34 33 32 32 32 29 22 13 8 9 6 3 3 2 2 5 3 4 7 7 8 7 3 6 10 9 7 2 3 1 5 3 6 7 4 4 1 4 4 3 2 1 1 5 4 3 11 8 7 6 3 4 6 4 2 4 3 3 2 1 1 1 1 1 1 1 1 2 2 1 1 5 8 7 3 4 4 7 8 8 7 6 7 7 6 5
34 35 34 33 32 31 32 30 18 7 9 11 5 3 2 3 6 4 5 1 7 4 4 4 3 5 5 5 7 7 4 3 3 5 8 9 2 4 4 4 4 3 1 2 4 1 0 6 9 5 7 5 2 3 6 4 2 3 3 3 2 3 2 0 1 2 2 1 1 2 2 2 1 5 7 7 4 3 2 3 4 6 8 8 8 8 8 8
34 35 33 34 33 31 33 26 9 6 14 15 5 1 3 9 8 3 5 1 4 5 4 6 4 5 4 3 7 10 3 4 4 4 9 12 3 3 5 4 4 2 3 5 7 5 6 8 4 5 7 7 4 3 6 5 2 2 4 4 3 5 4 1 1 2 2 1 2 3 2 3 2 4 5 5 2 3 3 1 3 4 5 4 6 7 9 9
35 35 34 34 32 32 31 16 3 11 20 13 2 2 7 12 8 3 3 3 2 6 4 3 2 3 4 2 7 8 3 3 5 5 10 13 7 4 2 2 4 3 6 5 6 4 8 8 3 5 5 7 6 4 5 6 2 2 4 7 5 7 7 5 5 3 1 1 0 2 1 3 3 5 7 3 2 3 3 0 4 5 4 3 5 7 7 8
34 34 34 34 32 35 25 5 5 18 18 6 1 4 9 12 8 4 4 5 2 5 2 1 1 2 3 3 4 4 4 2 6 5 9 12 10 6 2 1 1 3 5 5 3 3 5 4 1 5 5 6 5 4 5 7 5 1 5 7 8 9 10 8 6 3 1 2 2 1 2 2 3 4 7 3 2 5 4 3 4 4 5 5 5 7 7 7
34 33 35 33 32 34 18 4 13 16 7 3 3 5 10 11 4 5 4 5 3 3 1 1 0 2 2 2 3 4 2 5 2 3 6 10 7 4 2 2 1 3 4 4 1 2 4 2 4 4 5 5 5 4 6 8 7 3 4 8 12 10 10 8 5 2 2 2 1 0 2 1 3 4 6 6 5 6 5 6 5 4 5 6 6 7 7 9
33 33 34 32 32 31 17 9 13 8 3 6 5 7 11 8 1 4 5 3 2 1 1 2 1 1 0 0 2 4 2 2 1 1 2 9 6 4 1 6 5 5 3 4 2 5 3 1 1 5 5 2 5 4 8 11 6 2 3 10 10 10 9 7 4 2 1 2 1 2 1 0 3 4 1 5 6 8 8 8 7 6 6 7 8 7 7 8
33 32 34 33 32 27 15 10 10 7 7 8 6 8 9 4 1 4 4 1 1 1 1 0 0 1 2 2 0 1 1 1 2 2 2 5 4 3 3 6 6 4 3 3 5 6 3 4 6 6 4 4 4 2 8 10 5 3 10 12 9 9 7 5 4 2 1 3 0 4 3 1 3 4 1 3 6 10 10 8 7 7 7 7 8 8 7 7
33 31 32 34 32 24 14 14 13 6 5 4 4 6 4 2 4 5 1 2 1 2 1 1 1 0 3 3 2 3 1 2 0 1 2 2 1 4 3 3 5 3 2 2 3 6 4 2 4 4 4 5 2 4 4 10 10 9 11 11 8 6 5 4 2 1 3 2 3 4 5 3 2 4 2 3 5 6 7 6 7 7 6 6 7 7 7 7
34 31 31 33 31 20 10 10 7 1 1 3 5 3 2 3 4 4 2 3 1 2 2 2 1 1 3 4 2 2 1 3 1 2 1 0 3 4 1 0 2 2 3 4 3 5 6 2 2 3 2 5 7 7 5 8 10 7 5 6 5 4 3 3 3 3 3 2 5 3 3 4 1 4 4 4 4 3 5 7 9 10 9 7 6 6 7 7
34 33 31 31 28 18 12 10 7 4 4 6 5 3 4 2 1 3 3 3 1 2 1 1 1 2 1 2 2 2 2 2 1 3 4 2 1 2 2 4 2 2 3 2 2 5 5 3 2 3 1 5 8 7 5 4 4 5 5 5 5 3 3 2 2 2 1 3 3 0 3 2 4 6 5 6 6 5 5 5 7 9 10 8 7 6 6 6
35 34 32 31 27 21 18 15 12 12 10 6 2 5 6 3 3 5 3 2 1 2 1 1 2 2 2 1 3 4 2 2 2 2 3 3 2 3 4 4 5 3 1 2 1 4 4 4 5 4 1 2 6 7 4 0 1 5 5 4 4 3 2 0 2 1 2 4 3 1 2 1 4 5 4 5 5 5 4 4 5 6 8 8 7 6 5 5
36 33 32 31 25 17 14 10 10 12 11 5 3 5 5 3 4 4 3 3 2 2 1 0 3 3 2 3 4 3 2 3 2 3 2 2 2 3 4 3 4 4 2 1 1 1 1 3 3 1 1 1 3 5 6 5 4 3 2 4 4 4 4 3 3 2 2 2 2 1 1 2 2 3 3 4 4 3 2 1 2 3 4 6 7 6 5 5
35 33 30 24 16 13 12 5 10 10 9 6 6 4 4 4 4 1 3 4 1 2 3 2 1 2 1 3 4 3 3 3 1 4 2 2 3 4 3 4 4 4 4 2 3 1 2 2 5 4 2 3 3 4 5 6 4 1 1 4 1 3 4 3 2 4 3 1 0 0 2 3 4 3 3 2 2 3 3 3 1 2 1 2 4 6 6 5
35 33 23 14 14 15 12 4 15 15 10 6 5 3 5 4 4 3 3 1 1 1 4 4 3 3 2 3 3 3 2 2 1 2 1 2 3 4 3 4 6 7 6 4 3 1 3 1 6 5 3 2 5 6 5 4 3 1 1 2 4 3 6 5 1 1 3 2 1 1 3 4 3 3 3 1 2 2 2 3 2 2 1 1 3 4 5 5
34 28 14 12 18 15 6 7 18 15 6 6 5 5 4 3 4 4 2 1 1 1 4 3 1 1 2 1 3 4 0 1 2 2 2 2 2 4 4 3 5 9 8 4 2 3 4 0 5 3 6 3 1 5 5 1 5 5 2 5 4 1 4 4 2 3 3 1 2 1 3 4 2 2 4 3 2 3 3 2 2 2 2 3 3 4 5 6
27 19 8 11 18 12 2 12 19 10 5 4 3 3 3 3 3 3 1 1 1 2 4 1 2 0 1 1 3 3 2 1 2 3 3 2 3 4 4 3 4 8 8 4 2 0 5 2 6 2 2 3 5 7 5 4 3 5 4 4 3 2 0 1 2 1 1 1 3 3 3 3 3 3 3 2 3 5 4 3 3 3 3 3 3 4 5 5
15 8 3 11 17 8 8 15 13 5 5 4 4 3 3 2 3 4 3 2 1 2 2 3 2 1 0 2 3 3 2 4 3 2 3 2 3 3 2 3 3 4 5 6 4 0 3 4 3 5 2 2 5 4 2 3 3 3 2 2 2 2 3 2 2 2 2 2 2 3 3 3 5 5 3 5 5 4 4 3 2 3 2 2 2 3 4 5
6 2 2 11 13 8 13 10 5 4 3 4 3 3 2 2 3 4 4 3 1 1 2 3 2 1 3 3 2 2 2 3 5 3 2 3 3 4 3 3 2 1 3 6 4 1 3 3 2 4 4 2 1 1 4 4 2 2 2 1 1 1 2 2 1 1 3 3 3 1 1 5 5 3 4 5 5 3 4 3 1 3 3 3 2 1 2 4
4 1 2 8 8 8 6 4 2 3 3 2 2 2 2 1 2 4 4 4 3 3 3 4 4 3 3 2 2 3 2 1 3 3 2 3 3 3 4 5 5 3 4 5 3 2 1 2 3 1 3 1 3 4 3 5 5 4 3 3 3 2 3 3 1 2 1 3 3 4 2 6 5 1 2 4 3 1 2 2 1 1 3 4 4 2 1 3
2 1 3 6 4 2 2 4 2 1 2 2 2 3 2 0 1 3 3 2 3 3 1 2 4 4 4 4 4 3 2 1 2 2 2 4 5 4 3 5 7 5 5 4 2 3 3 3 4 1 1 3 6 5 2 3 4 4 2 3 4 3 4 5 2 3 0 2 1 3 1 5 4 1 1 2 1 1 2 2 1 1 2 3 4 4 2 2
1 4 6 5 6 3 3 3 2 2 1 3 3 2 2 1 1 3 2 1 3 2 1 2 4 3 4 5 4 3 3 3 3 3 2 3 5 6 4 6 7 4 5 3 2 1 2 4 4 1 4 4 6 5 1 1 3 3 1 1 2 2 3 5 4 3 3 2 1 2 1 5 4 2 1 1 1 0 1 1 1 1 2 2 3 4 3 2
1 4 5 6 9 3 4 2 1 0 2 4 2 2 3 1 2 3 2 3 3 2 2 3 3 3 4 4 3 3 4 3 2 3 3 3 3 3 4 6 5 3 3 4 4 2 1 2 4 3 3 5 6 6 5 4 1 1 1 2 1 3 5 3 2 3 1 3 4 4 3 5 4 2 1 1 2 2 1 1 0 1 2 3 3 2 2 1
3 2 3 7 10 5 4 2 3 3 2 3 2 4 3 2 3 4 4 5 4 3 2 3 3 3 3 2 2 2 2 2 2 2 1 2 2 2 3 5 2 1 3 4 6 4 2 3 4 5 3 2 2 2 3 3 1 0 1 2 1 4 5 2 2 3 0 3 4 4 4 5 4 3 3 3 2 3 3 2 1 3 3 2 3 2 1 2
2 1 3 5 7 5 2 1 3 2 1 2 2 3 1 2 5 3 4 4 3 3 3 4 3 1 2 1 1 3 3 1 1 1 1 2 2 2 1 2 0 1 3 6 6 5 4 2 3 6 7 6 6 7 5 2 2 0 1 1 1 2 4 4 3 2 3 3 1 4 5 2 5 5 5 5 4 4 4 1 2 2 3 3 2 2 1 3
1 1 2 2 3 4 3 3 4 2 1 1 1 1 1 2 4 4 2 1 1 2 2 2 0 1 1 2 2 3 3 0 2 1 2 2 1 3 2 2 2 1 5 6 3 4 5 2 2 6 6 5 7 6 3 2 3 3 3 1 1 2 5 5 2 4 4 4 3 7 4 2 6 6 7 7 5 4 3 2 3 2 2 2 1 2 2 4
1 0 1 1 1 1 1 3 4 3 4 2 2 1 2 2 3 4 3 3 4 3 1 2 3 3 2 3 4 1 1 1 1 1 1 1 0 2 4 4 3 2 3 3 2 4 6 2 3 5 3 2 4 3 2 1 2 2 3 4 3 3 5 5 5 5 6 4 5 5 6 5 7 4 4 5 4 3 2 2 3 2 1 1 1 2 4 5
1 1 2 0 0 2 2 4 4 4 4 3 1 2 2 2 3 2 3 3 5 4 2 2 5 6 6 2 4 3 1 2 1 2 2 1 1 2 2 1 2 3 3 4 2 2 5 2 3 3 2 1 0 2 2 3 1 1 0 3 2 3 4 4 3 4 5 3 4 4 6 7 6 2 3 4 3 2 1 2 2 1 1 1 2 3 3 3
1 1 2 2 2 2 3 3 2 3 4 2 0 2 2 1 3 3 3 1 2 5 3 2 7 7 5 2 3 5 4 6 3 3 3 2 0 2 3 3 2 2 4 3 1 2 3 2 1 3 3 2 3 2 4 4 3 2 3 4 1 1 1 1 0 2 3 2 1 3 1 6 5 2 4 4 3 1 1 2 2 2 4 4 3 3 2 0
2 2 1 1 2 3 1 2 2 2 3 3 1 2 3 2 2 4 4 4 4 3 3 4 9 7 2 2 3 2 3 5 6 8 6 5 4 4 3 4 6 4 2 2 1 2 3 2 1 5 3 2 4 3 3 4 5 2 5 6 1 2 2 2 2 3 5 3 2 3 1 5 4 3 5 4 3 1 1 2 2 3 4 4 4 4 3 2
5 2 2 2 1 2 2 2 3 1 1 2 1 2 3 4 4 3 3 3 3 4 2 4 6 5 1 2 2 3 6 6 8 10 7 6 7 6 3 3 7 7 5 5 2 1 4 5 2 3 3 4 5 2 1 5 6 3 5 5 6 4 3 3 3 4 5 5 4 3 4 4 3 6 7 5 5 4 4 3 2 4 5 4 4 5 4 3
Wind_Direction
13 13 12 10 10 8 7 6 5 4 3 2 1 1 359 359 358 357 350 340 333 331 330 318 316 317 317 321 323 328 331 329 326 301 256 265 241 190 174 173 162 160 166 160 154 144 127 143 188 166 138 144 34 353 347 337 352 41 57 81 118 161 194 185 174 190 136 168 209 218 146 115 98 148 129 65 75 110 97 34 60 51 55 108 123 134 142 147
16 16 15 13 11 8 7 6 5 5 5 3 3 2 0 360 359 1 358 350 342 337 334 319 312 311 315 320 323 331 334 329 322 288 256 247 179 168 168 172 168 167 166 162 159 147 134 160 178 146 110 56 293 339 355 314 38 67 85 76 181 198 215 199 170 178 142 145 186 184 156 138 154 158 136 103 135 134 96 46 73 76 78 108 124 134 143 150
17 17 15 13 9 7 6 5 6 7 6 5 2 1 360 358 357 356 354 350 343 338 330 318 309 308 315 317 326 334 334 333 317 290 266 190 162 159 161 169 175 172 166 168 165 144 144 167 155 133 101 354 270 356 21 327 6 85 98 64 252 223 233 256 174 201 218 139 107 134 152 162 193 156 132 136 150 156 143 147 118 119 131 131 135 139 147 153
16 16 14 12 9 6 4 4 5 6 6 4 1 359 357 355 355 351 348 344 336 332 322 313 305 307 316 317 331 335 332 350 290 295 48 161 163 158 159 167 173 172 164 159 165 141 125 145 143 123 101 325 304 44 36 258 203 76 102 145 255 207 68 344 348 271 256 134 98 87 136 163 205 149 132 137 137 223 214 199 169 154 153 147 149 148 152 157
17 15 12 10 7 5 3 3 3 4 4 2 0 357 355 354 352 349 346 344 337 331 320 308 297 305 316 321 335 335 342 58 244 300 76 157 167 164 162 166 169 174 172 138 157 155 127 120 111 77 83 302 316 39 271 232 145 62 357 200 276 39 87 335 343 329 272 131 96 81 126 167 158 126 148 149 155 215 210 199 177 158 156 154 154 154 157 161
17 14 11 7 4 3 1 0 360 1 2 0 358 354 354 353 351 350 348 351 349 337 330 312 294 306 318 329 342 344 28 123 266 247 143 162 174 178 170 172 172 173 177 146 145 155 135 91 73 98 85 2 213 205 247 209 112 81 337 14 21 32 67 330 341 337 10 96 57 61 38 338 118 136 177 166 179 225 158 146 155 152 150 149 150 156 162 168
17 13 9 5 2 0 358 357 356 357 360 358 355 352 352 351 351 351 349 357 355 352 348 315 301 314 330 342 354 18 62 247 269 207 192 177 177 190 182 177 174 173 178 161 149 143 117 105 143 175 97 347 228 215 220 120 101 93 348 354 37 45 47 340 355 353 11 69 1 256 358 25 149 154 178 190 247 203 115 121 133 141 142 146 152 165 171 175
17 13 8 4 0 358 356 353 351 353 356 355 352 350 349 348 348 347 349 353 351 360 352 316 326 330 343 357 33 30 25 260 261 208 218 199 184 195 193 184 176 179 179 175 167 147 137 138 184 181 116 255 209 192 167 111 95 117 168 249 60 40 34 354 43 33 12 30 339 36 54 153 174 159 156 203 243 126 118 122 128 137 143 152 164 173 174 177
16 13 9 5 1 358 354 349 348 349 352 352 350 347 344 342 342 340 341 345 350 7 4 352 340 342 357 12 82 66 264 262 262 242 252 222 197 194 197 193 182 180 178 188 181 150 164 175 203 201 205 249 177 170 159 113 232 170 149 123 77 12 9 3 31 47 23 2 1 45 31 348 252 120 139 209 172 130 119 128 135 142 152 166 173 177 176 179
14 12 10 6 2 358 353 349 347 346 347 349 347 344 339 335 334 333 327 336 352 14 25 20 340 6 24 35 80 84 265 295 287 268 278 228 193 182 188 193 185 181 176 184 186 176 187 189 190 187 202 263 158 162 157 128 174 126 115 98 83 48 359 23 32 9 19 19 14 64 38 338 345 6 177 216 155 135 125 134 144 151 162 174 178 183 180 184
12 10 8 6 3 358 354 350 347 345 344 345 344 340 335 328 323 321 309 317 341 49 56 46 5 18 55 77 96 127 286 318 265 278 292 214 188 180 183 190 187 182 171 164 197 204 203 194 159 118 168 250 115 85 92 120 111 119 123 93 55 54 34 22 43 356 8 17 344 69 60 346 354 320 213 175 155 141 134 146 156 161 171 177 180 185 184 191
11 9 7 5 2 358 355 352 348 346 344 344 341 337 333 321 310 303 270 257 275 120 94 98 72 56 66 70 158 210 310 197 245 273 280 176 179 187 186 190 187 183 172 160 206 214 216 223 92 54 245 151 105 76 104 100 98 123 119 94 5 25 39 1 5 346 32 26 310 22 42 343 342 294 231 166 152 145 141 154 164 171 176 178 182 184 190 196
11 8 6 3 1 358 355 353 350 348 347 344 339 337 331 316 301 279 220 199 195 154 125 121 99 140 94 312 219 192 348 226 239 255 232 177 164 176 188 195 190 189 183 176 206 220 227 239 212 213 242 106 114 196 116 71 74 93 53 92 24 12 13 339 338 348 48 48 317 3 35 267 263 284 233 168 150 142 146 165 172 177 178 179 185 186 197 197
10 8 5 3 1 358 355 354 352 350 349 344 341 340 335 323 299 236 190 184 181 153 131 111 49 146 128 267 230 71 309 237 229 237 219 200 176 156 185 191 190 197 201 207 223 235 247 258 230 223 309 105 145 127 72 34 31 44 16 55 56 25 288 316 336 29 69 43 339 19 190 238 266 310 267 195 163 150 159 177 179 180 181 183 186 188 197 198
10 8 5 3 1 358 356 355 352 351 350 346 346 349 353 360 286 189 175 174 158 138 123 85 51 102 36 302 247 287 303 230 231 235 227 217 191 166 192 192 194 201 213 232 244 269 297 303 273 185 9 22 104 88 38 17 24 37 28 326 5 169 269 319 332 52 96 266 356 57 181 236 275 297 293 246 180 165 167 178 182 183 182 184 189 190 192 190
10 8 6 2 1 359 356 355 353 352 349 348 355 2 17 41 94 148 161 162 147 142 121 86 51 77 69 324 344 316 268 210 245 240 228 229 213 184 172 182 191 202 218 243 258 272 286 311 36 142 104 60 90 98 53 27 354 358 81 263 278 153 293 321 321 30 82 89 344 64 144 223 280 287 296 257 183 182 174 180 185 185 186 183 186 186 177 161
9 8 6 3 1 359 357 354 353 352 349 351 2 13 28 43 83 121 146 146 144 152 129 120 84 51 294 292 321 315 258 219 247 238 222 230 227 214 125 142 148 164 202 237 261 278 305 57 94 298 68 67 104 103 66 1 296 319 60 264 256 158 167 287 305 347 42 69 198 104 102 232 278 316 315 261 179 184 184 190 191 188 188 181 178 176 168 161
7 7 6 4 1 359 358 353 352 352 348 352 6 19 33 47 84 106 137 135 118 136 114 264 150 56 288 287 288 277 301 273 241 225 218 226 230 227 229 52 92 101 93 30 344 343 349 1 59 54 26 54 135 113 128 226 221 197 175 201 255 199 177 246 300 293 4 37 174 139 133 240 279 323 320 289 179 186 195 194 195 191 183 177 175 173 171 170
5 5 5 4 1 359 357 353 351 350 347 353 1 17 35 39 70 96 141 127 65 129 255 261 167 46 238 242 276 289 301 284 224 207 207 216 223 218 223 19 68 82 72 61 326 335 96 33 49 167 237 194 188 174 173 193 171 163 171 151 162 214 226 230 298 249 196 75 158 188 175 230 275 291 316 321 184 189 202 193 191 191 179 178 178 175 176 180
2 2 2 2 1 358 356 353 349 347 351 357 353 10 35 21 24 358 298 186 212 220 238 226 179 253 268 255 286 307 303 261 199 195 192 201 182 155 170 16 43 50 81 148 236 309 109 109 225 230 216 176 202 214 168 132 128 124 126 124 124 158 248 277 32 108 193 231 232 211 187 226 267 282 311 320 211 187 197 192 189 188 182 182 179 180 183 186
358 359 359 359 358 357 354 350 346 345 354 3 3 33 97 95 38 317 311 294 244 215 230 238 195 230 259 254 258 23 31 5 276 208 172 187 153 130 233 26 72 359 286 181 170 10 72 152 234 232 209 192 202 203 154 124 107 97 129 145 104 114 227 339 323 190 177 289 296 359 326 245 330 314 302 318 237 188 193 188 190 189 187 189 181 181 184 174
356 356 355 355 355 355 351 347 345 345 359 6 17 78 162 178 308 266 252 315 278 218 218 245 233 253 261 257 245 187 81 28 303 291 166 159 136 156 231 65 117 219 294 84 62 0 26 233 247 233 197 209 209 138 143 171 152 98 123 143 120 194 154 57 253 149 106 284 321 24 352 25 11 275 281 304 283 228 209 186 191 187 179 186 183 178 172 157
353 352 352 352 352 352 349 344 344 356 7 355 351 114 157 329 335 241 180 309 292 253 210 217 206 237 265 271 220 165 119 172 252 276 180 151 135 178 144 94 140 169 53 135 157 131 303 248 246 200 159 184 221 147 145 157 157 138 138 134 176 197 157 152 242 126 85 325 58 67 9 341 255 249 272 283 268 280 288 174 181 189 185 187 183 177 170 165
350 350 350 348 348 351 347 342 351 23 356 342 324 106 359 340 346 169 165 340 295 285 241 204 194 201 232 269 175 152 139 182 187 251 179 153 129 148 152 148 133 141 223 184 158 175 238 250 215 135 149 165 173 178 156 152 218 235 175 167 183 168 151 140 151 126 52 39 84 85 27 308 251 226 252 281 299 291 300 128 155 198 210 196 175 176 177 174
348 348 348 347 347 348 345 344 32 358 341 331 301 4 353 341 338 169 152 23 306 293 281 211 218 206 199 145 159 160 119 192 213 207 170 160 149 129 172 167 124 210 229 171 147 199 256 260 187 150 170 161 162 189 181 169 182 302 220 195 171 138 135 125 124 116 29 348 221 108 108 280 266 219 230 276 323 270 306 303 187 202 211 193 176 182 185 181
346 345 346 346 344 345 347 354 338 337 332 316 237 346 345 338 336 154 124 35 308 286 307 176 198 203 190 137 164 147 74 288 246 176 160 171 164 127 134 198 89 225 203 154 154 211 259 278 144 160 164 155 176 217 215 172 137 306 239 173 132 123 130 134 134 117 123 237 272 126 141 272 296 245 224 221 234 242 277 275 223 202 195 197 195 191 184 182
343 343 343 342 342 345 348 306 316 325 320 297 291 324 335 338 339 150 101 22 310 271 213 212 355 145 187 181 157 123 123 277 281 128 158 175 169 88 125 216 271 225 185 129 345 249 223 316 43 101 108 132 177 233 224 166 137 246 234 131 122 127 128 128 118 91 165 186 281 108 117 67 292 259 216 183 200 237 245 248 240 213 200 200 205 202 189 185
340 340 341 339 339 340 333 302 310 307 270 291 282 302 326 335 334 133 78 32 279 271 164 243 290 149 272 223 146 128 191 248 95 301 221 164 165 60 127 219 193 211 203 130 237 265 210 239 148 117 86 139 198 223 190 151 126 253 135 111 115 118 115 109 93 76 156 104 54 240 152 88 270 278 245 163 198 234 231 229 230 218 207 200 203 208 202 194
338 338 337 335 334 335 331 304 293 285 290 287 271 294 314 330 84 86 66 94 267 329 171 326 303 252 10 47 296 2 329 7 128 272 348 141 177 75 156 210 167 192 250 141 212 256 241 212 190 137 113 220 221 200 173 142 114 126 106 97 95 99 99 88 93 134 54 48 279 224 185 157 275 278 6 136 205 229 223 220 224 220 214 205 202 204 203 200
335 336 335 332 330 330 323 297 285 291 304 281 278 297 308 42 73 69 38 232 274 305 259 358 271 230 75 99 303 317 274 285 307 351 26 119 330 35 140 175 111 146 281 359 241 255 282 252 182 153 174 200 127 66 122 118 118 123 103 93 90 78 69 63 65 114 59 7 283 240 178 134 306 274 214 182 216 223 208 208 218 219 220 214 208 201 197 197
333 333 332 328 324 318 305 290 286 352 352 281 305 327 72 56 66 96 206 241 268 303 327 322 288 43 100 142 259 290 210 277 314 95 107 186 9 27 70 274 54 69 6 347 292 296 328 351 199 237 185 136 94 61 63 103 113 112 98 105 96 41 24 32 351 22 68 276 283 276 150 124 258 263 236 232 249 236 202 205 211 211 211 213 212 201 193 193
331 331 328 324 318 299 268 264 265 258 269 279 313 26 91 74 51 164 240 291 305 266 284 264 296 359 97 139 251 231 179 259 251 139 147 169 181 162 188 200 178 19 341 296 294 336 324 250 259 316 42 114 101 81 52 41 63 88 108 108 91 44 12 9 332 6 136 252 280 184 126 118 248 250 258 258 255 243 224 218 218 214 208 203 204 202 194 187
329 329 326 322 315 297 280 275 261 252 254 257 334 51 83 100 223 216 240 300 242 231 202 158 315 316 164 149 258 222 186 235 237 160 147 147 188 234 255 210 160 131 268 234 285 356 326 307 352 9 329 76 99 115 126 203 133 137 136 120 116 105 67 324 281 309 264 272 302 157 151 271 278 269 268 261 260 250 234 227 226 224 212 199 192 194 197 189
327 329 326 320 317 313 307 281 238 229 228 209 78 71 98 145 232 225 229 251 254 294 3 157 319 323 177 203 245 202 185 248 194 140 150 122 152 247 277 243 167 135 131 169 231 89 44 315 340 20 239 33 81 142 159 152 146 165 141 116 140 151 144 185 215 204 219 270 335 2 182 201 227 256 247 243 272 285 281 263 226 238 231 200 188 186 191 197
326 328 327 321 321 333 331 269 195 184 179 140 73 92 152 201 239 218 220 242 295 334 312 298 55 36 291 274 274 212 192 246 168 118 154 165 175 202 208 212 196 153 127 160 235 129 86 263 272 277 234 154 159 174 137 109 104 230 110 102 164 196 144 130 171 167 155 139 118 279 242 218 212 255 264 238 280 304 328 343 325 291 316 169 187 191 189 200
328 332 332 326 326 331 328 231 175 167 161 119 84 162 192 214 211 181 196 205 43 319 327 345 62 83 300 293 293 270 205 214 170 125 207 218 199 208 203 208 192 171 158 160 209 189 77 296 288 315 18 114 182 171 135 129 143 142 120 173 227 191 120 108 152 105 89 135 228 248 268 292 322 308 307 9 16 327 319 324 293 270 286 156 198 201 196 203
332 334 329 325 334 336 326 187 171 164 138 107 131 195 215 213 185 182 199 111 345 69 64 14 339 160 254 270 287 287 289 212 202 166 215 252 229 210 206 229 195 186 187 160 185 200 126 152 295 3 61 17 307 105 80 72 127 119 184 208 201 138 83 101 126 19 43 200 272 298 254 297 344 303 315 356 336 278 260 261 269 256 223 217 224 213 210 208
328 326 311 330 345 351 64 160 164 151 88 117 175 215 203 193 187 201 214 124 10 62 89 169 241 240 162 207 279 272 149 194 232 176 179 220 250 205 171 201 201 198 199 145 106 223 108 103 297 312 114 323 352 68 62 350 68 125 185 177 127 138 208 87 131 149 119 208 290 305 283 272 209 230 290 297 240 239 245 253 267 261 230 229 233 219 220 211
325 322 321 348 353 12 124 146 152 98 72 157 210 228 199 221 241 227 202 152 110 106 131 219 220 338 272 189 242 259 181 189 198 178 165 175 238 238 175 191 198 206 193 140 131 238 93 113 275 286 251 321 6 60 114 302 6 59 64 48 60 134 162 149 146 164 152 159 243 301 327 273 228 215 214 241 246 229 225 234 260 289 301 282 250 219 216 210
344 341 308 355 15 96 129 132 119 65 111 182 209 215 225 246 256 252 222 194 173 155 202 215 182 240 265 231 231 248 226 190 174 177 198 181 212 256 244 192 146 105 119 112 115 115 70 101 186 287 324 28 15 182 169 181 155 82 51 26 357 67 133 153 80 84 127 145 186 222 295 266 251 199 191 251 273 234 201 199 256 318 339 333 309 239 214 224
5 42 296 4 48 127 113 61 98 121 136 188 206 219 258 220 229 288 261 205 207 226 205 186 188 212 237 258 259 225 216 207 169 167 217 199 181 224 229 183 155 144 112 94 96 149 125 106 137 296 355 66 239 245 181 180 174 153 156 174 174 147 126 128 334 313 107 123 162 164 218 266 262 185 223 266 277 211 151 138 178 320 348 341 342 357 214 221
33 28 289 4 29 219 31 59 181 136 121 186 220 219 253 272 188 274 280 207 202 229 214 184 210 214 204 223 241 219 185 226 193 163 209 207 186 208 223 145 134 134 116 118 187 179 142 101 99 95 268 216 252 269 202 189 176 147 139 144 148 132 117 130 196 253 142 84 130 133 193 270 268 289 312 286 263 130 114 119 150 46 17 2 358 355 333 233
56 300 281 354 357 318 72 82 293 353 158 236 259 219 225 261 217 242 266 230 208 208 182 209 207 205 217 215 216 212 191 194 197 186 209 214 206 227 218 140 127 107 94 117 215 159 98 84 82 349 303 302 302 312 354 84 105 111 28 62 129 134 127 144 172 178 150 161 158 103 255 268 282 313 331 310 292 229 123 96 102 105 53 38 19 358 344 307
314 286 268 337 349 11 121 157 262 222 283 308 343 311 289 247 204 232 248 233 223 179 166 232 215 208 229 194 165 213 206 186 221 215 182 182 217 237 183 154 132 108 130 166 174 156 117 105 100 74 359 344 341 343 347 346 48 125 302 319 67 104 100 110 118 89 101 198 154 133 234 259 280 291 268 285 317 317 298 289 7 84 59 32 21 20 22 1
313 281 257 315 347 35 129 173 147 155 302 350 345 308 315 296 245 233 234 244 238 193 189 256 229 203 232 189 153 251 221 177 236 242 131 190 258 359 135 161 128 133 200 169 136 123 122 140 121 115 136 189 223 258 270 264 239 243 316 345 64 108 114 134 111 84 138 221 143 146 221 263 288 262 239 237 266 292 277 261 2 55 53 23 12 22 66 107
354 13 303 316 353 36 75 26 80 112 64 43 331 298 17 326 300 261 235 247 243 207 218 256 249 214 266 224 199 273 256 207 256 233 169 192 236 339 156 175 125 178 148 110 97 89 97 121 122 132 159 185 194 215 227 173 124 285 309 11 36 122 115 103 99 134 193 175 174 217 207 270 293 251 223 226 229 253 270 309 43 56 42 22 11 348 334 144
56 29 357 339 340 11 27 14 33 35 340 124 228 295 3 320 316 320 310 286 296 277 237 249 346 66 271 206 179 240 238 326 26 237 206 181 215 317 334 73 51 89 124 105 76 81 99 114 148 143 172 194 183 210 243 123 145 194 193 208 242 153 118 115 158 207 169 130 270 256 185 177 267 239 204 211 217 237 274 13 48 52 31 20 359 317 264 175
17 40 42 130 281 314 355 348 355 342 305 244 208 309 344 355 2 353 323 313 328 334 343 352 4 6 305 223 172 195 273 127 60 259 241 204 75 1 11 39 28 9 104 82 19 90 108 145 195 163 183 179 165 218 261 142 160 171 171 205 221 170 156 176 211 200 161 165 243 235 176 201 253 244 183 186 185 209 239 57 62 54 31 349 301 278 237 201
354 13 321 14 158 229 250 308 320 318 305 269 249 1 359 14 15 340 279 311 330 333 21 348 318 329 331 279 149 96 20 167 190 279 242 164 113 86 74 61 12 23 74 74 20 86 112 152 210 162 117 71 152 231 163 137 112 46 260 240 221 197 199 210 226 192 175 210 230 180 189 235 252 204 140 130 121 155 181 87 82 122 156 217 258 271 253 218
13 334 327 2 357 275 264 308 330 337 331 324 34 348 322 344 5 329 279 218 293 317 4 348 298 307 328 332 106 117 178 183 191 248 205 147 200 179 166 186 169 54 53 79 29 32 93 143 205 101 85 329 329 40 104 114 131 148 307 313 30 119 224 252 240 171 181 264 294 105 178 269 264 168 120 101 95 100 115 104 108 157 179 190 215 270 296 273
334 274 325 42 330 312 301 320 7 50 343 346 51 341 318 300 347 339 292 218 197 262 329 328 297 290 319 17 65 115 224 209 208 232 215 184 210 210 202 198 164 134 96 126 130 37 86 107 48 72 92 270 322 28 79 79 83 84 303 294 221 162 206 221 212 195 187 185 100 76 309 269 256 142 121 121 134 166 191 149 132 181 200 200 204 222 231 207
359 309 3 82 274 326 18 339 356 78 246 297 353 332 298 278 309 351 315 285 228 222 277 334 302 277 296 29 26 326 299 272 248 252 238 215 233 244 255 214 161 148 153 146 118 46 118 129 131 101 128 253 303 342 103 67 46 343 277 232 194 194 224 246 260 237 197 152 128 172 240 251 187 151 146 150 166 199 211 174 154 199 210 221 224 221 225 217